Location: Keppel Henge
(44.7900°N, 80.9447°W)
Time: 20:08:28
(UTC-04:00)

Envisat - Pass Details

Date: 15 October 2017
Orbit: 764 x 766 km, 98.2° (Epoch: 23 October)

Event Time Altitude Azimuth Distance (km) Brightness Sun altitude
Exits shadow 21:23:15 63° 296° (WNW) 853 3.3 -29.7°
Drops below altitude 10° 21:27:48 10° 342° (NNW) 2,311 5.9 -30.5°
Sets 21:30:08 0° 345° (NNW) 3,242 6.7 -30.9°
